Flag for Uruguay Weather past 2 weeks in Maldonado, Uruguay

Now
50 °F

Clear.


Feels Like: 46 °F
Forecast: 47 / 68 °F
Wind: 10 mph from North

Location: Capitan Corbeta

Current Time: Aug 27, 2015 at 10:07:47 PM

Latest Report: Aug 27, 2015 at 9:00 PM


Visibility: 10 mi

Pressure: 30.01 "Hg

Humidity: 82%

Dew point: 45 °F

Location of MaldonadoLocation

Historic Weather in Maldonado — Graph

°F

Maldonado temperature yesterday

Maximum temperature yesterday: 61 °F (at 3:00 AM)
Minimum temperature yesterday: 54 °F (at 12:00 PM)
Average temperature yesterday: 58 °F

Past Weeks' High & Low Weather Summary

 TemperatureHumidityPressure
High73 °F (Aug 22, 1:00 PM)100% (Aug 13, 2:00 AM)30.33 "Hg (Aug 13, 2:00 AM)
Low41 °F (Aug 16, 5:00 AM)55% (Aug 20, 11:00 AM)29.65 "Hg (Aug 22, 3:00 PM)
Average55 °F83%30.02 "Hg
* Reported Aug 12 9:00 PM — Aug 27 9:00 PM, Maldonado, Weather by CustomWeather, © 2015

Note: Actual official high and low records may vary slightly from our data, if they occured in-between our weather recording intervals... More about our weather records

Advertising

Maldonado weather history for previous 24 hours

 ConditionsComfort  
Time TempWeatherWind HumidityBarometerVisibility
9:00 PM
Thu, Aug 27
50 °FClear.10 mph82%30.01 "Hg10 mi
8:00 PM52 °FClear.10 mph82%30.01 "Hg10 mi
7:00 PM52 °FClear.9 mph82%30.01 "Hg10 mi
6:00 PM54 °FClear.12 mph77%29.98 "Hg10 mi
5:00 PM57 °FPassing clouds.23 mph67%29.95 "HgN/A
4:00 PM57 °FPassing clouds.23 mph63%29.95 "HgN/A
3:00 PM57 °FScattered clouds.23 mph67%29.95 "HgN/A
2:00 PM59 °FPassing clouds.23 mph63%29.95 "HgN/A
1:00 PM59 °FScattered clouds.25 mph63%29.92 "HgN/A
12:00 PM59 °FPassing clouds.23 mph63%29.92 "HgN/A
11:00 AM59 °FPassing clouds.23 mph63%29.92 "HgN/A
10:00 AM57 °FPassing clouds.21 mph67%29.89 "HgN/A
9:00 AM57 °FScattered clouds.17 mph72%29.86 "HgN/A
8:00 AM55 °FPassing clouds.10 mph82%29.86 "HgN/A
7:00 AM55 °FSunny.14 mph82%29.83 "Hg10 mi
6:00 AM52 °FClear.10 mph88%29.80 "Hg10 mi
5:00 AM52 °FClear.16 mph94%29.80 "Hg10 mi
3:00 AM52 °FPassing clouds.14 mph94%29.77 "HgN/A
2:00 AM54 °FPassing clouds.12 mph94%29.77 "HgN/A
12:00 AM54 °FLow clouds.14 mph94%29.77 "Hg5 mi
11:00 PM
Wed, Aug 26
54 °FLow clouds.13 mph94%29.77 "Hg5 mi
10:00 PM54 °FLow clouds.9 mph94%29.77 "Hg5 mi
Weather by CustomWeather, © 2015

See weather overviewHow to use our weather pages